Погода в Малой Буромке

Украина / Черкасская область     49°38′55″N   32°36′06″E
темп.,
°C
ветер,
м/с
пор.,
м/с
влажн.,
%
обл.,
%
осадки,
мм/ч
давл.,
гПа
погр.,
м
23 октября, сб
сб2300:00+12зюз345395 0.0 101470
03:00+10зюз35605 0.0 101471
06:00+9з512745 0.0 1013278
09:00+10з4106613 0.0 1014423
12:00+13з8114130 0.0 10161374
15:00+13зсз8114019 0.0 10162063
18:00+9зсз48485 0.0 1018161
21:00+7з49535 0.0 1020193
24 октября, вс
вс2400:00+5сз33635 0.0 102146
03:00+4з376997 0.0 1022149
06:00+4з497879 0.0 1022203
09:00+7зсз4972100 0.1 1023524
12:00+9сз676483 0.2 10241120
15:00+8сз7855100 0.4 10241626
18:00+5ссз61070100 0.0 1027742
21:00+6сз5966100 0.0 1028846
25 октября, пн
пн2500:00+3ссз410815 0.1 1030335
03:00+1ссз38835 0.1 1031201
06:000ссз35835 0.0 1032105
09:00+2с34725 0.0 1034189
12:00+6с23525 0.0 1034855
15:00+8ссз22445 0.0 10331059
18:00+5ссв11540 0.0 103310
21:00+3юв22595 0.0 103310
26 октября, вт
вт2600:00+2ю22635 0.0 103318
03:00+2ю22725 0.0 103313
06:00+1ю22755 0.0 103320
09:00+3ю25655 0.0 1032147
12:00+8ю45415 0.0 1032671
15:00+10ю56350 0.0 1030875
18:00+6ююв34470 0.0 102945
21:00+5ю36530 0.0 102888
27 октября, ср
ср2700:00+4ю37550 0.0 102899
03:00+3ю36550 0.0 102898
06:00+2ю35670 0.0 102767
09:00+4ю37670 0.0 1027232
12:00+9ююз56415 0.0 1026666
15:00+10ююз453966 0.0 1024920
18:00+7юз2255100 0.0 102320
21:00+7зюз3576100 0.0 1023101